Skip Page Navigation
NASA JPL Caltech
NASA Logo - Jet Propulsion Laboratory + View the NASA Portal
+ Near-Earth Object (NEO) Program
Search JPL
JPL Home Earth Solar System Stars & Galaxies Technology
JPL Solar System Dynamics
BODIES ORBITS EPHEMERIDES TOOLS PHYSICAL DATA DISCOVERY FAQ SITE MAP
JPL Small-Body Database Browser
Search: [ help ]  
10003 (1971 UD1)
Classification: Main-belt Asteroid          SPK-ID: 2010003
Ephemeris | Orbit Diagram | Orbital Elements | Physical Parameters | Discovery Circumstances ]

[ show orbit diagram ]
Orbital Elements at Epoch 2457000.5 (2014-Dec-09.0) TDB
Reference: JPL 8 (heliocentric ecliptic J2000)
 Element Value Uncertainty (1-sigma)   Units 
e .1286936351006402 4.9256e-08  
a 2.212367641783545 1.0528e-08 AU
q 1.92765000778339 1.0913e-07 AU
i 1.577123972564735 5.1908e-06 deg
node 99.61049738253068 0.00017919 deg
peri 278.1068833260863 0.00018044 deg
M 50.2199951451606 2.3177e-05 deg
tp 2456832.828774247263
(2014-Jun-24.32877425)
7.7032e-05 JED
period 1201.944386822625
3.29
8.5792e-06
2.349e-08
d
yr
n .2995146896535459 2.1379e-09 deg/d
Q 2.497085275783701 1.1882e-08 AU
  Orbit Determination Parameters
   # obs. used (total)      1112  
   data-arc span      15825 days (43.33 yr)  
   first obs. used      1971-10-26  
   last obs. used      2015-02-22  
   planetary ephem.      DE431  
   SB-pert. ephem.      SB431-BIG16  
   condition code      0  
   fit RMS      .52637  
   data source      ORB  
   producer      Otto Matic  
   solution date      2015-Mar-09 14:20:40  

Additional Information
 Earth MOID = .929955 AU 
 T_jup = 3.645 
[ show covariance matrix ]

Ephemeris | Orbit Diagram | Orbital Elements | Physical Parameters | Discovery Circumstances ]

Physical Parameter Table
Parameter Symbol Value Units Sigma Reference Notes
absolute magnitude H 14.5 mag n/a MPO319210  

10003 (1971 UD1)          Discovered 1971-Oct-26 by Kohoutek, L. at Bergedorf
Reference: 19990302/Numbers.arcLast Updated: 2004-04-19

Alternate Designations
 1971 UD1 = 1984 SU4 
Ephemeris | Orbit Diagram | Orbital Elements | Physical Parameters | Discovery Circumstances ]
ABOUT SSD CREDITS/AWARDS PRIVACY/COPYRIGHT GLOSSARY LINKS
FirstGov 2015-Mar-29 20:48 UT
(server date/time)  
NASA Home Page
Site Manager:   Ryan S. Park
Webmaster  Alan B. Chamberlin